FW7127 Weather Reports


time (UTC)temp
F
wind
direction
speed
knots
gust
knots
rain 1hr
in
rain 24hr
in
rain mn
in
humidity
%
barometer
mb
20260505224502 81 155 7.8 14.8 0.00 0.00 0.00 82 1007.7
20260505223959 81 174 8.7 17.4 0.00 0.00 0.00 81 1007.6
20260505223456 81 189 8.7 13.0 0.00 0.00 0.00 81 1007.6
20260505222952 81 173 4.3 15.6 0.00 0.00 0.00 81 1007.9
20260505222449 82 180 7.8 16.5 0.00 0.00 0.00 81 1007.9
20260505221944 82 151 5.2 13.0 0.00 0.00 0.00 81 1007.7
20260505221442 82 167 9.6 13.9 0.00 0.00 0.00 80 1007.8
20260505220939 82 165 7.8 13.9 0.00 0.00 0.00 81 1007.8
20260505220436 82 170 13.9 16.5 0.00 0.00 0.00 79 1007.7
20260505215933 83 172 5.2 13.0 0.00 0.00 0.00 79 1008.1
20260505215431 83 166 10.4 13.9 0.00 0.00 0.00 80 1007.8
20260505214929 82 196 9.6 15.6 0.00 0.00 0.00 79 1007.8
20260505214427 82 169 9.6 14.8 0.00 0.00 0.00 79 1007.8
20260505213924 82 166 10.4 13.9 0.00 0.00 0.00 79 1007.9
20260505213421 82 171 8.7 13.0 0.00 0.00 0.00 80 1008.2
20260505212917 83 165 7.8 14.8 0.00 0.00 0.00 80 1008.2
20260505212414 82 171 10.4 13.0 0.00 0.00 0.00 80 1008.2
20260505211911 83 188 4.3 13.0 0.00 0.00 0.00 80 1008.1
20260505211409 82 163 6.1 15.6 0.00 0.00 0.00 79 1008.3
20260505210904 82 148 6.1 15.6 0.00 0.00 0.00 80 1008.2
20260505210402 83 167 8.7 15.6 0.00 0.00 0.00 80 1008.3
20260505205858 83 170 7.0 15.6 0.00 0.00 0.00 79 1008.5
20260505205357 84 183 7.0 14.8 0.00 0.00 0.00 77 1008.4
20260505204853 84 211 12.2 18.2 0.00 0.00 0.00 76 1008.5
20260505204351 84 166 7.8 13.0 0.00 0.00 0.00 76 1008.7
20260505203848 84 180 7.0 14.8 0.00 0.00 0.00 77 1008.8
20260505203344 84 170 7.8 18.2 0.00 0.00 0.00 76 1008.8
20260505202841 84 187 9.6 17.4 0.00 0.00 0.00 75 1008.8
20260505202337 83 201 10.4 17.4 0.00 0.00 0.00 76 1009.0
20260505201834 84 171 7.8 13.9 0.00 0.00 0.00 77 1009.0
20260505201331 84 203 9.6 12.2 0.00 0.00 0.00 78 1009.0
20260505200830 84 176 6.1 15.6 0.00 0.00 0.00 76 1009.2
20260505200326 84 203 13.0 17.4 0.00 0.00 0.00 76 1009.0
20260505195822 84 192 6.1 19.1 0.00 0.00 0.00 78 1009.0
20260505195319 83 166 13.9 19.1 0.00 0.00 0.00 77 1009.5
20260505194816 83 199 7.8 14.8 0.00 0.00 0.00 78 1009.5
20260505194313 83 204 10.4 14.8 0.00 0.00 0.00 78 1009.4
20260505193808 82 181 3.5 17.4 0.00 0.00 0.00 78 1009.7
20260505193307 82 197 8.7 13.9 0.00 0.00 0.00 79 1009.7
20260505192805 82 187 9.6 19.1 0.00 0.00 0.00 79 1009.8
20260505192305 83 162 10.4 12.2 0.00 0.00 0.00 81 1009.8
20260505191800 82 136 9.6 13.0 0.00 0.00 0.00 82 1009.8
20260505191258 82 201 5.2 11.3 0.00 0.00 0.00 81 1009.9
20260505190754 83 193 9.6 12.2 0.00 0.00 0.00 79 1010.0
20260505190249 83 186 6.1 9.6 0.00 0.00 0.00 81 1009.9
20260505185746 83 209 7.0 12.2 0.00 0.00 0.00 81 1009.8
20260505185242 82 215 7.0 10.4 0.00 0.00 0.00 83 1010.0
20260505184738 81 215 11.3 13.0 0.00 0.00 0.00 82 1010.2
20260505184236 81 192 4.3 11.3 0.00 0.00 0.00 82 1010.4
20260505183732 80 170 6.1 12.2 0.00 0.00 0.00 82 1010.3
20260505183230 82 174 8.7 14.8 0.00 0.00 0.00 81 1010.2
20260505182726 82 164 5.2 15.6 0.00 0.00 0.00 82 1010.1
20260505182223 81 196 7.8 12.2 0.00 0.00 0.00 82 1010.2
20260505181720 80 212 8.7 17.4 0.00 0.00 0.00 82 1010.4
20260505181218 80 191 9.6 16.5 0.00 0.00 0.00 83 1010.3
20260505180714 80 209 10.4 12.2 0.00 0.00 0.00 83 1010.4
20260505180211 80 168 6.1 12.2 0.00 0.00 0.00 83 1010.3
20260505175706 80 161 10.4 13.0 0.00 0.00 0.00 83 1010.4
20260505175203 80 197 9.6 13.0 0.00 0.00 0.00 84 1010.4
20260505174659 81 186 6.1 14.8 0.00 0.00 0.00 83 1010.4
20260505174156 80 212 9.6 14.8 0.00 0.00 0.00 82 1010.4
20260505173653 81 189 8.7 10.4 0.00 0.00 0.00 82 1010.7
20260505173150 80 225 7.8 13.0 0.00 0.00 0.00 83 1010.7
20260505172647 80 206 8.7 11.3 0.00 0.00 0.00 84 1010.6
20260505172144 80 173 9.6 12.2 0.00 0.00 0.00 84 1010.7
20260505171643 79 192 3.5 12.2 0.00 0.00 0.00 85 1010.7
20260505171141 79 204 4.3 13.9 0.00 0.00 0.00 84 1010.5
20260505170638 79 200 10.4 11.3 0.00 0.00 0.00 85 1010.7
20260505170134 79 227 6.1 13.0 0.00 0.00 0.00 85 1010.6
20260505165629 78 206 5.2 13.9 0.00 0.00 0.00 85 1010.7
20260505165126 78 212 7.8 16.5 0.00 0.00 0.00 86 1010.8
20260505164621 78 210 12.2 15.6 0.00 0.00 0.00 86 1010.8
20260505164119 78 186 10.4 13.9 0.00 0.00 0.00 86 1010.7
20260505163617 79 207 7.0 13.0 0.00 0.00 0.00 85 1010.7
20260505163114 79 193 10.4 12.2 0.00 0.00 0.00 86 1010.8
20260505162612 78 172 8.7 18.2 0.00 0.00 0.00 86 1010.8
20260505162109 78 201 13.0 17.4 0.00 0.00 0.00 87 1011.0
20260505161606 78 165 7.8 12.2 0.00 0.00 0.00 88 1010.9
20260505161103 78 228 11.3 13.9 0.00 0.00 0.00 88 1010.8
20260505160601 78 171 7.0 16.5 0.00 0.00 0.00 88 1010.6
20260505153038 76 215 6.1 12.2 0.00 0.00 0.00 91 1010.8
20260505152535 76 216 10.4 15.6 0.00 0.00 0.00 92 1010.7
20260505152030 76 209 9.6 11.3 0.00 0.00 0.00 92 1010.7
20260505151525 75 196 7.0 13.0 0.00 0.00 0.00 92 1010.9
20260505151023 75 213 9.6 18.2 0.00 0.00 0.00 92 1010.6
20260505150519 76 185 4.3 13.0 0.00 0.00 0.00 93 1010.5
20260505140444 73 179 8.7 9.6 0.00 0.00 0.00 96 1010.2
20260505124857 70 173 3.5 7.0 0.00 0.00 0.00 99 1010.2
20260505124355 70 177 3.5 9.6 0.00 0.00 0.00 99 1010.3
20260505123850 70 181 4.3 7.8 0.00 0.00 0.00 99 1010.2
20260505123347 69 160 4.3 7.0 0.00 0.00 0.00 99 1010.2
20260505122843 69 169 5.2 8.7 0.00 0.00 0.00 99 1010.1
20260505122341 69 170 5.2 8.7 0.00 0.00 0.00 99 1010.2
20260505121837 69 165 3.5 7.0 0.00 0.00 0.00 99 1010.2
20260505121334 69 162 2.6 6.1 0.00 0.00 0.00 99 1009.9
20260505120830 69 162 2.6 7.0 0.00 0.00 0.00 99 1009.9
20260505120327 69 197 3.5 7.0 0.00 0.00 0.00 99 1010.0
20260505115826 69 190 3.5 6.1 0.00 0.00 0.00 99 1010.0
20260505115323 69 167 3.5 5.2 0.00 0.00 0.00 99 1009.7
20260505114821 69 162 3.5 5.2 0.00 0.00 0.00 98 1010.0
20260505114317 68 174 2.6 6.1 0.00 0.00 0.00 98 1010.0
20260505113813 68 196 4.3 6.1 0.00 0.00 0.00 98 1009.8
20260505113309 68 170 2.6 7.8 0.00 0.00 0.00 98 1009.6
20260505112805 68 162 5.2 6.1 0.00 0.00 0.00 98 1009.7
20260505112305 68 163 3.5 5.2 0.00 0.00 0.00 98 1009.6
20260505111759 68 176 3.5 7.0 0.00 0.00 0.00 98 1009.6
20260505111254 68 179 3.5 7.8 0.00 0.00 0.00 98 1009.6
20260505110750 68 177 4.3 7.8 0.00 0.00 0.00 98 1009.6
20260505110248 68 160 7.0 7.8 0.00 0.00 0.00 98 1009.8
20260505101722 68 180 4.3 9.6 0.00 0.00 0.00 98 1009.6
20260505101218 68 178 4.3 7.8 0.00 0.00 0.00 98 1009.6
20260505100715 68 169 4.3 7.0 0.00 0.00 0.00 98 1009.8
20260505100212 68 195 6.1 7.0 0.00 0.00 0.00 97 1009.9
20260505095707 68 187 6.1 6.1 0.00 0.00 0.00 97 1009.8
20260505095205 68 176 3.5 7.8 0.00 0.00 0.00 97 1010.0
20260505094701 68 166 5.2 8.7 0.00 0.00 0.00 97 1009.9
20260505094157 68 179 3.5 8.7 0.00 0.00 0.00 97 1009.6
20260505093653 68 175 2.6 7.8 0.00 0.00 0.00 97 1009.8
20260505093151 68 174 4.3 7.0 0.00 0.00 0.00 97 1009.7
20260505092648 68 176 3.5 7.8 0.00 0.00 0.00 97 1009.8
20260505092147 68 177 4.3 7.0 0.00 0.00 0.00 97 1010.1
20260505091643 68 186 3.5 6.1 0.00 0.00 0.00 97 1010.2
20260505091141 68 192 5.2 6.1 0.00 0.00 0.00 97 1010.3
20260505090638 69 178 3.5 7.0 0.00 0.00 0.00 97 1009.9
20260505090137 69 156 2.6 6.1 0.00 0.00 0.00 96 1009.8
20260505085634 69 172 3.5 7.0 0.00 0.00 0.00 96 1010.0
20260505085132 69 187 3.5 7.8 0.00 0.00 0.00 96 1010.1
20260505084629 69 177 4.3 7.8 0.00 0.00 0.00 96 1010.3
20260505084128 69 210 5.2 7.0 0.00 0.00 0.00 96 1010.1
20260505083625 69 179 5.2 9.6 0.00 0.00 0.00 96 1010.2
20260505083121 69 187 3.5 7.8 0.00 0.00 0.00 96 1010.3
20260505082617 69 188 4.3 7.8 0.00 0.00 0.00 96 1010.3
20260505082114 69 185 3.5 8.7 0.00 0.00 0.00 96 1010.6
20260505081610 69 178 6.1 9.6 0.00 0.00 0.00 96 1010.6
20260505081108 69 192 2.6 12.2 0.00 0.00 0.00 96 1010.5
20260505080604 69 171 5.2 11.3 0.00 0.00 0.00 96 1010.6
20260505075556 69 200 6.1 8.7 0.00 0.00 0.00 95 1010.6
20260505075053 69 197 3.5 7.0 0.00 0.00 0.00 95 1010.8
20260505074550 69 199 2.6 6.1 0.00 0.00 0.00 95 1010.8
20260505074047 69 207 4.3 8.7 0.00 0.00 0.00 95 1010.8
20260505073544 68 195 5.2 6.1 0.00 0.00 0.00 95 1011.0
20260505073044 68 202 4.3 7.0 0.00 0.00 0.00 95 1011.0
20260505072538 68 180 5.2 10.4 0.00 0.00 0.00 95 1011.0
20260505072035 68 197 6.1 7.8 0.00 0.00 0.00 95 1010.9
20260505071530 69 187 3.5 7.8 0.00 0.00 0.00 94 1011.2
20260505071029 69 197 4.3 7.8 0.00 0.00 0.00 94 1011.0
20260505070526 69 182 4.3 8.7 0.00 0.00 0.00 94 1011.1
20260505070022 69 181 4.3 10.4 0.00 0.00 0.00 94 1010.9
20260505065518 69 172 3.5 11.3 0.00 0.00 0.00 94 1011.1
20260505065014 69 189 4.3 12.2 0.00 0.00 0.00 94 1011.0
20260505064511 69 174 5.2 10.4 0.00 0.00 0.00 93 1011.2
20260505064010 69 172 5.2 12.2 0.00 0.00 0.00 93 1011.3
20260505063507 69 165 6.1 9.6 0.00 0.00 0.00 93 1011.2
20260505063002 69 175 5.2 13.0 0.00 0.00 0.00 93 1011.2
20260505062459 69 180 3.5 11.3 0.00 0.00 0.00 93 1011.2
20260505061956 69 161 6.1 11.3 0.00 0.00 0.00 93 1011.3
20260505061454 69 171 6.1 10.4 0.00 0.00 0.00 92 1011.5
20260505060951 69 180 4.3 11.3 0.00 0.00 0.00 92 1011.4
20260505060449 69 166 7.0 10.4 0.00 0.00 0.00 92 1011.3
20260505055945 69 173 4.3 12.2 0.00 0.00 0.00 92 1011.3
20260505055441 69 174 7.0 11.3 0.00 0.00 0.00 92 1011.3
20260505054938 69 187 7.8 13.9 0.00 0.00 0.00 91 1011.5
20260505054435 69 171 11.3 11.3 0.00 0.00 0.00 91 1011.4
20260505053933 69 190 7.0 13.9 0.00 0.00 0.00 91 1011.5
20260505053430 69 166 6.1 9.6 0.00 0.00 0.00 91 1011.3
20260505052927 69 190 8.7 12.2 0.00 0.00 0.00 91 1011.5
20260505052424 70 174 5.2 12.2 0.00 0.00 0.00 90 1011.6
20260505051921 70 166 6.1 13.9 0.00 0.00 0.00 90 1011.5
20260505051418 70 176 7.8 13.9 0.00 0.00 0.00 90 1011.7
20260505050916 70 173 6.1 14.8 0.00 0.00 0.00 90 1011.7
20260505050414 70 166 13.0 13.0 0.00 0.00 0.00 90 1011.7
20260505041341 71 174 7.0 11.3 0.00 0.00 0.00 87 1012.1
20260505040839 71 170 12.2 13.9 0.00 0.00 0.00 87 1012.1
20260505040336 71 174 7.0 13.9 0.00 0.00 0.00 86 1012.1
20260505035833 71 165 7.8 16.5 0.00 0.00 0.00 86 1012.1
20260505035328 71 174 5.2 11.3 0.00 0.00 0.00 86 1012.2
20260505034826 71 176 7.0 14.8 0.00 0.00 0.00 86 1012.4
20260505034322 71 175 6.1 14.8 0.00 0.00 0.00 86 1012.1
20260505033820 71 168 7.8 13.0 0.00 0.00 0.00 85 1012.1
20260505033316 71 166 11.3 14.8 0.00 0.00 0.00 85 1012.0
20260505032815 71 160 7.8 13.0 0.00 0.00 0.00 85 1011.9
20260505032311 71 165 9.6 16.5 0.00 0.00 0.00 85 1012.0
20260505031808 71 177 9.6 14.8 0.00 0.00 0.00 85 1012.3
20260505031304 71 163 9.6 14.8 0.00 0.00 0.00 85 1012.2
20260505030802 71 181 6.1 13.9 0.00 0.00 0.00 84 1012.2
20260505030258 71 170 8.7 14.8 0.00 0.00 0.00 84 1012.1
20260505025753 71 163 10.4 15.6 0.00 0.00 0.00 84 1012.1
20260505025251 71 165 7.8 14.8 0.00 0.00 0.00 84 1012.0
20260505024749 72 165 7.0 17.4 0.00 0.00 0.00 84 1012.2
20260505024246 72 165 10.4 15.6 0.00 0.00 0.00 83 1012.1
20260505023744 72 163 6.1 14.8 0.00 0.00 0.00 83 1012.1
20260505023241 72 167 12.2 13.0 0.00 0.00 0.00 83 1011.9
20260505022738 72 170 11.3 16.5 0.00 0.00 0.00 83 1011.9
20260505022235 72 161 10.4 12.2 0.00 0.00 0.00 83 1012.0
20260505021731 72 185 9.6 13.9 0.00 0.00 0.00 82 1011.8
20260505021229 72 174 11.3 13.0 0.00 0.00 0.00 82 1012.0
20260505020724 73 178 6.1 13.0 0.00 0.00 0.00 82 1011.8
20260505020219 73 159 4.3 13.0 0.00 0.00 0.00 81 1011.6
20260505015717 73 170 8.7 12.2 0.00 0.00 0.00 81 1011.7
20260505015214 73 166 8.7 13.0 0.00 0.00 0.00 81 1011.6
20260505014711 73 177 8.7 13.9 0.00 0.00 0.00 81 1011.4
20260505014209 73 181 8.7 11.3 0.00 0.00 0.00 81 1011.4
20260505013705 73 169 7.0 13.0 0.00 0.00 0.00 80 1011.4
20260505013202 73 168 10.4 11.3 0.00 0.00 0.00 80 1011.4
20260505012700 74 145 7.8 13.0 0.00 0.00 0.00 80 1011.2
20260505012157 74 170 7.8 11.3 0.00 0.00 0.00 80 1011.4
20260505011653 74 182 6.1 13.9 0.00 0.00 0.00 80 1011.2
20260505011150 74 164 8.7 14.8 0.00 0.00 0.00 79 1011.2
20260505010645 74 171 6.1 11.3 0.00 0.00 0.00 79 1011.3
20260505010143 74 169 6.1 10.4 0.00 0.00 0.00 79 1011.0
20260505005638 75 155 6.1 9.6 0.00 0.00 0.00 78 1011.1
20260505005136 75 174 6.1 12.2 0.00 0.00 0.00 78 1011.1
20260505004633 75 183 11.3 12.2 0.00 0.00 0.00 77 1011.4
20260505004129 75 179 6.1 13.9 0.00 0.00 0.00 77 1011.1
20260505003627 76 164 6.1 13.0 0.00 0.00 0.00 76 1011.4
20260505003124 76 171 6.1 13.0 0.00 0.00 0.00 76 1011.3
20260505002620 76 180 7.8 11.3 0.00 0.00 0.00 76 1011.5
20260505002118 76 165 9.6 12.2 0.00 0.00 0.00 76 1011.4
20260505001615 76 183 5.2 14.8 0.00 0.00 0.00 76 1011.5
20260505001113 76 164 8.7 10.4 0.00 0.00 0.00 76 1011.4
20260505000609 76 170 6.1 13.9 0.00 0.00 0.00 75 1011.7
20260505000108 76 191 7.0 12.2 0.00 0.00 0.00 75 1011.6
20260504235604 76 171 7.8 12.2 0.00 0.00 0.00 75 1011.4
20260504235100 76 165 8.7 14.8 0.00 0.00 0.00 74 1011.5
20260504234557 77 163 10.4 16.5 0.00 0.00 0.00 74 1011.6
20260504234054 77 169 7.0 15.6 0.00 0.00 0.00 74 1011.7
20260504233550 77 168 9.6 16.5 0.00 0.00 0.00 73 1011.4
20260504233047 77 162 13.9 16.5 0.00 0.00 0.00 73 1011.7
20260504232544 77 177 8.7 13.9 0.00 0.00 0.00 73 1011.6
20260504232042 77 173 9.6 14.8 0.00 0.00 0.00 73 1011.7
20260504231538 77 164 8.7 15.6 0.00 0.00 0.00 73 1011.7
20260504231034 77 188 4.3 16.5 0.00 0.00 0.00 72 1011.8
20260504230530 78 160 11.3 16.5 0.00 0.00 0.00 72 1012.0
20260504230029 78 162 11.3 15.6 0.00 0.00 0.00 71 1012.0
20260504225526 78 178 12.2 17.4 0.00 0.00 0.00 71 1011.9
20260504225023 78 179 8.7 13.9 0.00 0.00 0.00 71 1012.0
20260504224520 79 180 10.4 18.2 0.00 0.00 0.00 70 1011.9